{"data":{"norad_id":81775,"epoch":"2026-05-24T02:22:47.633952Z","epoch_age_seconds":146169,"freshness":"FRESH","line1":"1 81775U          26144.09916243  .00004306  00000+0  12776-2 0  9996","line2":"2 81775  82.9160  89.4648 0020061  91.7265 268.6227 14.43016196648673","mean_motion":14.43016196,"eccentricity":0.0020061,"inclination_deg":82.916,"raan_deg":89.4648,"arg_perigee_deg":91.7265,"mean_anomaly_deg":268.6227,"bstar":0.0012776,"rev_number":64867,"period_min":99.790979754187,"perigee_km":734.25346534659,"apogee_km":762.84716018286,"semimajor_km":7126.6873127647,"source":"CELESTRAK","updated_at":"2026-05-25T13:38:11.083247Z"}}